#timestamp,LO_Frequency,Hit,StdDev 
1584903615.3,286047004.4,N
1584903635.1,286047003.7,N
1584903636.0,286047003.7,N
1584903655.8,286047005.2,N
1584903675.7,286047004.2,N
1584903695.5,286047003.5,N
1584903715.4,286046996.6,N
1584903735.2,286046996.2,N
1584903755.0,286046990.5,N
1584903755.9,286046990.5,N
1584903775.8,286046989.0,N
1584903795.6,286046990.0,N
1584903815.4,286046997.9,N
1584903835.3,286046997.6,N
1584903855.1,286046997.7,N
1584903875.9,286046998.9,N
1584903895.7,286046992.9,N
1584903915.5,286046987.7,N
1584903935.4,286046989.0,N
1584903955.2,286046987.5,N
1584903975.0,286046989.2,N
1584903975.9,286046989.2,N
1584903995.8,286046994.5,N
1584904015.6,286046990.8,N
1584904035.5,286046997.5,N
1584904055.3,286046997.2,N
1584904075.1,286047000.2,N
1584904095.9,286047006.2,N
1584904115.7,286047004.9,N
1584904135.5,286047008.3,N
1584904155.4,286047006.8,N
1584904175.2,286047003.6,N
1584904195.1,286047004.7,N
1584904196.0,286047004.7,N
1584904215.8,286046999.4,N
1584904235.6,286047000.5,N
1584904255.5,286046997.3,N
1584904275.3,286046996.9,N
1584904295.1,286046997.6,N
1584904315.9,286046993.4,N
1584904335.7,286046992.8,N
1584904355.6,286046992.8,N
1584904375.4,286046994.1,N
1584904395.2,286046994.3,N
1584904415.1,286046989.6,N
1584904416.0,286046989.6,N
1584904435.8,286046988.1,N
1584904455.7,286046989.3,N
1584904475.5,286046987.9,N
1584904495.3,286046986.8,N
1584904515.2,286046982.1,N
1584904535.9,286046985.6,N
1584904555.7,286046989.3,N
1584904575.6,286046983.7,N
1584904595.4,286046979.0,N
1584904615.2,286046977.9,N
1584904635.1,286046978.6,N
1584904636.0,286046978.6,N
1584904655.8,286046976.1,N
1584904675.7,286046979.7,N
1584904695.5,286046979.7,N
1584904715.3,286046977.7,N
1584904735.2,286046978.5,N
1584904755.0,286046981.2,N
1584904755.9,286046981.2,N
1584904775.8,286046981.3,N
1584904795.6,286046980.5,N
1584904815.4,286046976.0,Y
1584904835.3,286046996.7,P
1584904855.1,286046998.3,N
1584904875.8,286046998.4,N
1584904895.7,286046997.9,N
1584904915.5,286046993.1,N
1584904935.4,286046991.8,N
1584904955.2,286046991.5,N
1584904975.0,286046993.2,N
1584904975.9,286046993.2,N
1584904995.8,286046992.9,N
1584905015.6,286046991.0,N
1584905035.4,286046997.9,N
1584905055.3,286046997.5,N
1584905075.1,286046998.7,N
1584905095.9,286046999.9,N
1584905115.7,286047003.1,N
1584905135.5,286047003.2,N
1584905155.4,286047004.3,N
1584905175.2,286047009.2,N
1584905195.0,286047012.3,N
1584905195.9,286047012.3,N
1584905215.8,286047010.9,N
1584905235.6,286047016.5,N
1584905255.5,286047018.6,N
1584905275.3,286047016.0,N
1584905295.1,286047018.1,N
1584905315.9,286047016.2,N
1584905335.7,286047018.4,N
1584905355.5,286047019.5,N
1584905375.4,286047027.8,N
1584905395.2,286047028.6,N
1584905415.1,286047033.8,Y
1584905416.0,286047033.8,P
1584905435.8,286047027.5,N
1584905455.6,286047031.4,N
1584905475.5,286047029.1,N
1584905495.3,286047031.1,Y
1584905515.2,286047007.0,P
1584905535.9,286047004.8,N
1584905555.7,286047002.1,N
1584905575.6,286047005.8,N
1584905595.4,286047005.9,N
1584905615.2,286047007.1,N
1584905635.1,286047005.9,N
1584905636.0,286047005.9,N
1584905655.8,286047001.8,N
1584905675.7,286047001.0,N
1584905695.5,286047003.8,N
1584905715.3,286047005.0,N
1584905735.2,286047005.2,N
1584905755.0,286047003.6,N
1584905755.9,286047003.6,N
1584905775.7,286046995.0,N
1584905795.6,286047001.1,N
1584905815.4,286046995.5,N
1584905835.3,286046996.3,N
1584905855.1,286046995.9,N
1584905856.0,286046995.9,N
1584905875.8,286046995.9,N
1584905895.7,286046994.4,N
1584905915.5,286046991.3,N
1584905935.3,286046990.9,N
1584905955.2,286046988.7,N
1584905975.0,286046990.5,N
1584905975.9,286046990.5,N
1584905995.8,286046988.9,N
1584906015.6,286046992.8,N
1584906035.4,286046990.1,N
1584906055.3,286046994.8,N
1584906075.1,286046990.9,N
1584906095.8,286046994.5,N
1584906115.7,286046995.9,N
1584906135.5,286046997.5,N
1584906155.4,286046995.3,N
1584906175.2,286047001.7,N
1584906195.0,286047000.7,N
1584906195.9,286047000.7,N
1584906215.8,286047005.7,N
1584906235.6,286047005.5,N
1584906255.5,286047010.4,N
1584906275.3,286047010.6,N
1584906295.1,286047012.2,N
1584906315.9,286047009.7,N
1584906335.7,286047012.9,N
1584906355.6,286047008.1,N
1584906375.4,286047012.3,N
1584906395.2,286047009.8,N
1584906415.1,286047012.7,N
1584906416.0,286047012.7,N
1584906435.8,286047013.0,N
1584906455.6,286047011.8,N
1584906475.5,286047011.0,N
1584906495.3,286047010.5,N
1584906515.2,286047012.1,N
1584906535.9,286047012.1,N
1584906555.7,286047007.3,N
1584906575.6,286046997.6,N
1584906595.4,286047004.4,N
1584906615.3,286047004.0,N
1584906635.1,286047000.5,N
1584906636.0,286047000.5,N
1584906655.8,286047000.2,N
1584906675.7,286046996.2,N
1584906695.5,286046993.5,N
1584906715.3,286046989.1,N
1584906735.2,286046992.9,N
1584906755.0,286046984.6,N
1584906755.9,286046984.6,N
1584906775.8,286046985.0,N
1584906795.6,286046985.7,N
1584906815.4,286046984.6,N
1584906835.3,286046989.6,N
1584906855.1,286046984.2,N
1584906875.9,286046981.0,N
1584906895.7,286046986.3,N
1584906915.5,286046983.0,N
1584906935.4,286046984.1,N
1584906955.2,286046988.5,N
1584906975.0,286046982.7,N
1584906976.0,286046982.7,N
1584906995.8,286046977.3,N
1584907015.6,286046985.8,N
1584907035.5,286046977.5,N
1584907055.3,286046978.9,N
1584907075.1,286046980.0,N
1584907095.9,286046979.8,N
1584907115.7,286046983.8,N
1584907135.6,286046987.8,N
1584907155.4,286046991.0,N
1584907175.2,286046995.5,N
1584907195.1,286046997.1,N
1584907196.0,286046997.1,N
